www.pogodaiklimat.ru

Погода и климат >> Архив погоды >> Буркина-Фасо >> Уагадугу


ПОГОДА в Уагадугу

  • Прогноз погоды в Уагадугу
  • Монитор погоды в Уагадугу

АРХИВ ПОГОДЫ в Уагадугу

Время (UTC), дата Ветер
(напр.,м/с)
 
Видим.   Явления Облачность Т
(С)
Тd
(С)
f
(%)
Тe
(С)
Тes
(С)
Комфортность P
(гПа)
Po
(гПа)
Тmin
(С)
Tmax
(С)
R
(мм)
R24
(мм)
S
(см)
21 15.08 ЮЗ 2 10 км зарница 9/1 600 м
[Cb cap Ac trans Ci sp]
+29.4 +23.3 70 +40 +40 очень
душно
1011.8 977.9
00 16.08 ЮЗ 3 10 км 9/0
[Ac trans Ci sp]
+27.4 +23.3 78 +37 +37 очень
душно
1011.4 977.5
03 16.08 З 1 10 км 9/1 600 м
[Sc Ac As Ci sp]
+26.9 +24.0 84 +37 +37 очень
душно
1011.2 977.3
06 16.08 штиль 0 10 км 9/1 600 м
[Sc Ac As Ci sp]
+26.0 +23.8 88 +36 +36 очень
душно
1011.5 977.5 +25.4
09 16.08 З 1 10 км 9/3 600 м
[Sc Ac As Ci sp]
+27.8 +24.3 81 +39 +44 очень
душно
1011.9 977.9
12 16.08 З 3 10 км 9/5 600 м
[Cu Sc Ac trans Ci sp]
+30.4 +23.0 65 +41 +46 опасность
перегрева
1011.5 977.6
15 16.08 СЗ 3 10 км слаб. дождь 9/5 600 м
[Cb cap Ac As Ci sp]
+30.7 +23.0 64 +41 +44 опасность
перегрева
1009.0 975.1
18 16.08 ЮЗ 3 10 км гроза без осадков 10/3 600 м
[Cb cap Ac As]
+26.0 +21.6 77 +33 +33 очень
душно
1009.2 975.0 +31.6 7
21 16.08 ЮЗ 2 10 км {гроза} 9/1 600 м
[Sc Ac trans Ci sp]
+24.4 +20.9 81 +31 +31 очень
душно
1011.7 977.4
00 17.08 З 2 10 км 9/0
[Ac trans Ci sp]
+24.4 +21.5 84 +31 +31 очень
душно
1012.1 978.0
03 17.08 ЮЗ 3 10 км 9/4 300 м
[Frnb Ac trans Ci sp]
+24.0 +22.6 92 +31 +31 очень
душно
1010.9 976.8
06 17.08 ЮЗ 2 10 км 10/1 480 м
[Sc Ac cast Ci sp]
+23.8 +22.1 90 +31 +31 очень
душно
1011.4 977.0 +23.0 7
09 17.08 ЮЗ 2 10 км 10/1 600 м
[Sc Ac As]
+25.4 +21.9 81 +33 +36 очень
душно
1012.7 978.3
12 17.08 ЮЗ 2 10 км 9/1 600 м
[Sc Ac cast Ci sp]
+30.5 +22.0 61 +39 +50 очень
душно
1011.8 977.7
15 17.08 З 3 10 км в посл. час дождь 9/3 600 м
[Cb cap Ac As Ci sp]
+29.7 +23.6 70 +41 +45 опасность
перегрева
1009.6 975.5
18 17.08 З 2 10 км {дождь} 9/1 600 м
[Sc Ac As Ci sp]
+28.3 +22.4 70 +37 +37 очень
душно
1008.7 974.5 +31.1 0.2
21 17.08 ЮЗ 2 10 км 9/0
[Ac trans Ci sp]
+27.1 +22.8 77 +36 +36 очень
душно
1010.9 976.7
00 18.08 ЮЗ 1 10 км 9/0
[Ac trans Ci sp]
+26.2 +22.9 82 +35 +35 очень
душно
1011.0 977.0
03 18.08 ЮЗ 2 10 км 9/0
[Ac trans Ci sp]
+25.4 +22.4 83 +33 +33 очень
душно
1009.4 975.4
06 18.08 З 1 10 км 9/0
[Ac trans Ci sp]
+24.9 +23.4 91 +33 +33 очень
душно
1010.1 976.0 +24.5 0.2
09 18.08 Ю 2 10 км 9/0
[Ac trans Ci sp]
+28.1 +23.1 74 +38 +44 очень
душно
1011.4 977.3
12 18.08 Ю 3 10 км 9/6 600 м
[Cu Sc Ac trans Ci sp]
+31.6 +23.3 61 +42 +47 опасность
перегрева
1010.7 976.8
15 18.08 СЗ 3 10 км гроза без осадков 9/6 600 м
[Cb cap Ac As Ci sp]
+27.8 +23.6 78 +38 +40 очень
душно
1008.6 974.5
18 18.08 З 2 10 км {гроза, дождь} 9/1 600 м
[Cb cap Ac trans Ci sp]
+28.0 +23.5 77 +38 +38 очень
душно
1008.4 974.3 +32.6 1
21 18.08 СЗ 3 10 км в посл. час гроза 9/1 600 м
[Cb cap Ac trans Ci sp]
+26.6 +23.8 85 +37 +37 очень
душно
1010.7 976.6
00 19.08 З 1 10 км {гроза} 9/0
[Ac trans Ci sp]
+25.1 +22.7 87 +33 +33 очень
душно
1011.2 977.2
03 19.08 ЮВ 2 10 км 9/0
[Ac trans Ci sp]
+24.4 +23.3 94 +33 +33 очень
душно
1010.0 975.8
06 19.08 Ю 2 10 км 9/0
[Ac trans Ci sp]
+24.4 +23.3 94 +33 +33 очень
душно
1010.0 975.8 +23.9 1
09 19.08 Ю 6 10 км 9/1 600 м
[Sc Ac trans Ci sp]
+28.2 +23.4 75 +38 +40 очень
душно
1011.6 977.5
12 19.08 ЮЗ 4 10 км 9/5 600 м
[Cu Sc Ac trans Ci sp]
+31.0 +23.2 63 +41 +46 опасность
перегрева
1010.4 976.4
15 19.08 З 3 10 км 9/5 600 м
[Cb cap Ac trans Ci sp]
+32.2 +23.0 58 +42 +45 опасность
перегрева
1008.3 974.4
18 19.08 ЮВ 14 6000 м гроза, ливневой дождь 10/1 1000 м
[Cb cap Ac As]
+22.2 +21.3 95 +29 +29 очень
душно
1010.4 975.9 +33.2 11
21 19.08 ЮЗ 2 10 км {гроза, дождь} 9/1 600 м
[Sc Ac trans Ci sp]
+22.7 +20.9 90 +30 +30 очень
душно
1012.0 977.7
00 20.08 З 2 10 км {гроза, дождь} 9/0
[Ac trans Ci sp]
+22.7 +21.5 93 +30 +30 очень
душно
1010.1 976.0 27
03 20.08 З 1 10 км 9/1 400 м
[St Ac As]
+22.5 +21.2 92 +30 +30 очень
душно
1009.4 975.4
06 20.08 ЮЗ 2 10 км слаб. дождь 9/6 300 м
[St Ac As]
+23.0 +21.9 94 +31 +31 очень
душно
1010.5 975.9 +21.0 38
09 20.08 З 2 10 км в посл. час морось {дождь} 9/5 300 м
[St As op]
+23.8 +22.1 90 +31 +33 очень
душно
1012.5 977.9
12 20.08 Ю 2 10 км слаб. дождь {морось} 10/5 600 м
[Cu Sc Ac As]
+26.0 +22.6 82 +34 +38 очень
душно
1012.1 977.6 0.2
15 20.08 Ю 4 10 км {дождь} 9/6 600 м
[Cu Sc Ac trans Ci sp]
+28.5 +22.6 70 +37 +39 очень
душно
1009.5 975.5
18 20.08 ЮЗ 2 10 км 9/1 600 м
[Cu Sc Ac trans Ci sp]
+27.9 +23.1 75 +37 +38 очень
душно
1010.0 975.7 +29.1 0.2
21 20.08 Ю 3 10 км 9/0
[Ci sp]
+25.8 +23.4 87 +35 +35 очень
душно
1011.4 977.0
00 21.08 Ю 2 10 км 9/0
[Ac As Ci sp]
+25.2 +22.6 86 +33 +33 очень
душно
1012.1 977.8
03 21.08 Ю 2 10 км 9/0
[Ac As Ci sp]
+24.6 +22.9 90 +33 +33 очень
душно
1011.6 977.4
06 21.08 ЮВ 1 10 км 9/4 480 м
[Sc Ac As Ci sp]
+24.4 +23.4 94 +33 +33 очень
душно
1012.4 978.1 +23.8 0.2
09 21.08 Ю 4 10 км 9/5 300 м
[Sc Ac trans Ci sp]
+26.1 +23.1 84 +35 +37 очень
душно
1014.0 979.7
12 21.08 Ю 5 10 км {дождь} 9/8 480 м
[Cu Sc Ac trans Ci sp]
+28.4 +23.0 73 +38 +40 очень
душно
1012.3 978.1 0.0
15 21.08 ЮЗ 3 10 км 9/4 600 м
[Cu Sc Ac trans Ci sp]
+30.8 +22.5 61 +40 +44 очень
душно
1009.8 975.8
18 21.08 Ю 4 10 км 9/1 600 м
[Cb cap Ac trans Ci sp]
+29.6 +22.6 66 +39 +39 очень
душно
1009.6 975.5 +31.1 0.0
21 21.08 Ю 2 10 км 9/0
[Ci sp]
+27.5 +23.2 77 +37 +37 очень
душно
1010.5 976.4
00 22.08 Ю 2 10 км 9/0
[Ci sp]
+26.3 +23.8 86 +36 +36 очень
душно
1011.3 977.2
03 22.08 Ю 2 10 км 9/0
[Ac trans Ci sp]
+25.5 +23.5 89 +35 +35 очень
душно
1010.9 976.9
06 22.08 Ю 2 10 км 9/1 800 м
[Cb calv Ac As Ci sp]
+25.2 +23.5 90 +34 +34 очень
душно
1011.0 976.9 +24.7 0.0
09 22.08 З 3 10 км 9/1 480 м
[Cb cap Ac As Ci sp]
+26.8 +22.8 79 +36 +40 очень
душно
1012.8 978.6
12 22.08 С 2 10 км слаб. дождь 9/1 480 м
[Cb cap Ac As Ci sp]
+23.6 +21.6 89 +30 +41 очень
душно
1013.0 978.6 8
15 22.08 СЗ 3 10 км 9/1 600 м
[Cu Sc Ac As Ci sp]
+25.6 +20.4 73 +32 +37 очень
душно
1010.6 976.3
18 22.08 З 2 10 км 9/1 600 м
[Sc Ac As Ci sp]
+26.9 +21.2 71 +34 +34 очень
душно
1010.5 976.3 +27.5 8

 

Местоположение метеостанции Уагадугу (Буркина-Фасо): широта 12.35 долгота -1.52 высота над уровнем моря 306 м.

В архиве по умолчанию представлена погода в Уагадугу за последнюю неделю. Архивные данные за месяц целиком и за предыдущие месяцы, начиная с января 2011 года, Вы можете получить, выбрав интересующий диапазон дат из раскрывающегося списка и нажав кнопку "Ввод!".


*Определитесь, кто Вы:
робот инопланетянин человек

Внимание! Время в таблицах - всемирное. Для получения местного времени необходимо прибавить поправку, которая равна 0 ч.

Смотрите также архив погоды в соседних городах и на ближайших метеорологических станциях:

Погода в По (Буркина-Фасо) (139 км)
Погода в Вахигуе (Буркина-Фасо) (167 км)
Погода в Боромо (Буркина-Фасо) (167 км)
Погода в Навронго (Гана) (168 км)
Погода в Фада-Нгурме (Буркина-Фасо) (209 км)
Погода в Дедугу (Буркина-Фасо) (213 км)
Погода в Дори (Буркина-Фасо) (247 км)
Погода в Дапаоне (Того) (262 км)
Погода в Ва (Гана) (277 км)
Погода в Гауа (Буркина-Фасо) (289 км)

Пояснения к столбцам:

Ветер - указаны скорость ветра в м/с - средняя за 10 мин, порывы в срок и между сроками (в фигурных скобках) и направление, откуда дует ветер: С - северный, СВ - северо-восточный, В - восточный, ЮВ - юго-восточный, Ю - южный, ЮЗ - юго-западный, З - западный, СЗ - северо-западный.
Видимость - горизонтальная дальность видимости в метрах или километрах. При видимости от 1 до 10 км при отсутствии осадков обычно наблюдается дымка, при ухудшении видимости до 1 км и менее - туман. В сухую погоду видимость может ухудшаться дымом, пылью или мглою.
Явления - указаны атмосферные явления, наблюдавшиеся в срок или в последний час перед сроком; фигурными скобками обозначены явления, наблюдавшиеся между сроками (за 1-3 часа до срока); квадратными скобками обозначены град или гололедные отложения с указанием их диаметра в мм.
Облачность - указаны через наклонную черту общая и нижняя облачность в баллах и высота нижней границы облаков в метрах; квадратными скобками обозначены формы облаков: Ci - перистые, Cs - перисто-слоистые, Cc - перисто-кучевые, Ac - высококучевые, As - высокослоистые, Sc - слоисто-кучевые, Ns - слоисто-дождевые, Cu - кучевые, Cb - кучево-дождевые. Подробнее классификацию облаков см. в Атласе облаков (PDF).
T - Температура воздуха - температура, измеренная на высоте 2 м над землей.
Td - Температура точки росы - температура, при понижении до которой содержащийся в воздухе водяной пар достигнет насыщения.
f - Относительная влажность воздуха - влажноcть воздуха, измеренная на высоте 2 м над землей.
Te - Эффективная температура - температура, которую ощущает одетый по сезону человек в тени. Характеристика душности погоды. При расчете учитывается влияние влажности воздуха и скорости ветра на теплоощущения человека.
Tes - Эффективная температура на солнце - температура, которую ощущает человек, с поправкой на солнечный нагрев. Характеристика знойности погоды. Зависит от высоты солнца над горизонтом, облачности и скорости ветра. Ночью, в пасмурную погоду, а также при ветре 12 м/с и более поправка равна нулю.
P - Атмосферное давление - приведенное к уровню моря атмосферное давление.
Po - Атмосферное давление - измеренное на уровне метеостанции атмосферное давление.
Tmin - Минимальная температура - минимум температуры воздуха на высоте 2 м над землей.
Tmax - Максимальная температура - максимум температуры воздуха на высоте 2 м над землей.
R - Количество осадков - Количество выпавших осадков за период времени, мм. При наведении курсора мыши на число - период времени, за который выпало указанное количество осадков.
R24 - Количество осадков - Количество выпавших осадков за 24 часа, мм.
S - Снежный покров - Высота снежного покрова, см. При наведении курсора мыши на число - состояние снежного покрова и степень покрытия местности в баллах.